This is the latest recevied weather packets stored in our database for station/object IN3XSV-15. If no packets are shown the sender has not sent any weather packets the latest 10 day(s).
| Time | Temp. | Humidity | Pressure | Rain* | Wind** | Luminosity | Snow |
|---|---|---|---|---|---|---|---|
| 1777986298 | 5° C | 94% | 853.7 hPa | 0 mm | - | - | - |
| 1777985998 | 4.44° C | 94% | 853.8 hPa | 0 mm | - | - | - |
| 1777985698 | 5° C | 94% | 853.7 hPa | 0 mm | - | - | - |
| 1777985398 | 5° C | 94% | 853.8 hPa | 0 mm | - | - | - |
| 1777985098 | 5° C | 94% | 853.9 hPa | 0 mm | - | - | - |
| 1777984798 | 4.44° C | 94% | 853.8 hPa | 0 mm | - | - | - |
| 1777984498 | 4.44° C | 94% | 853.7 hPa | 0 mm | - | - | - |
| 1777984198 | 4.44° C | 94% | 853.8 hPa | 0 mm | - | - | - |
| 1777983898 | 4.44° C | 94% | 853.9 hPa | 0 mm | - | - | - |
| 1777983598 | 4.44° C | 94% | 853.8 hPa | 0 mm | - | - | - |
| 1777983298 | 3.89° C | 94% | 853.9 hPa | 0 mm | - | - | - |
| 1777982999 | 3.89° C | 95% | 853.9 hPa | 0 mm | - | - | - |
| 1777982699 | 3.89° C | 94% | 853.9 hPa | 0 mm | - | - | - |
| 1777982399 | 3.89° C | 94% | 853.8 hPa | 0 mm | - | - | - |
| 1777982098 | 3.89° C | 94% | 853.7 hPa | 0 mm | - | - | - |
| 1777981799 | 3.33° C | 94% | 853.7 hPa | 0 mm | - | - | - |
| 1777981498 | 3.33° C | 94% | 853.9 hPa | 0 mm | - | - | - |
| 1777981199 | 3.89° C | 94% | 853.8 hPa | 0 mm | - | - | - |
| 1777980899 | 3.89° C | 94% | 853.9 hPa | 0 mm | - | - | - |
| 1777980599 | 3.89° C | 95% | 853.8 hPa | 0 mm | - | - | - |
| 1777980299 | 3.89° C | 94% | 853.8 hPa | 0 mm | - | - | - |
| 1777979999 | 3.89° C | 94% | 853.8 hPa | 0 mm | - | - | - |
| 1777979699 | 3.33° C | 94% | 854.1 hPa | 0 mm | - | - | - |
| 1777979399 | 3.89° C | 94% | 854 hPa | 0 mm | - | - | - |
| 1777979099 | 3.33° C | 94% | 853.9 hPa | 0 mm | - | - | - |
* Rain latest hour (hover to see other rain measurements)
** Current wind speed in m/s (hover to see current wind gust speed)